Regional Weather Roundup
Issued by NWS

Home | Current Version | Previous Version | Text Only | Print | Product List | Glossary On
Versions: 1 2 3 4 5 6 7 8 9 10 11 12 13 14 15 16 17 18 19 20 21 22 23 24 25 26 27 28 29 30 31 32 33 34 35 36 37 38 39 40 41 42 43 44 45 46 47 48 49 50
000
ASUS43 KLOT 211603
RWRIL

ILLINOIS REGIONAL WEATHER ROUNDUP
NATIONAL WEATHER SERVICE CHICAGO/ROMEOVILLE IL
1000 AM CST SAT JAN 21 2017

NOTE: "FAIR" INDICATES FEW OR NO CLOUDS BELOW 12,000 FEET WITH NO
SIGNIFICANT WEATHER AND/OR OBSTRUCTIONS TO VISIBILITY.

* THESE STATIONS ARE NOT UNDER NWS QUALITY CONTROL. THEY ALSO MAY NOT
  REPORT WEATHER SUCH AS PRECIPITATION OR FOG.

ILZ001-002-007-009-015-016-024-211700-
NORTHWEST ILLINOIS

CITY           SKY/WX    TMP DP  RH WIND       PRES   REMARKS
MOLINE         SUNNY     51  43  74 S12       29.44R
STERLING*      SUNNY     48  47  96 VRB3      29.48S
SAVANNA*       PTSUNNY   46  46  99 S7        29.46R FOG
$$

ILZ003-004-008-010-011-017-018-211700-
NORTH CENTRAL ILLINOIS

CITY           SKY/WX    TMP DP  RH WIND       PRES   REMARKS
ROCKFORD       CLOUDY    46  45  96 S9        29.50R FOG
FREEPORT*      PTSUNNY   45  45 100 S14       29.49R FOG
ROCHELLE*      PTSUNNY   46  46 100 S10       29.49S FOG
DE KALB*       PTSUNNY   47  47  99 S13       29.51R FOG
$$

ILZ005-006-012>014-019>023-211700-
NORTHEAST ILLINOIS

CITY           SKY/WX    TMP DP  RH WIND       PRES   REMARKS
CHICAGO-OHARE  MOSUNNY   52  48  86 S14       29.51S
CHICAGO-MIDWAY MOSUNNY   52  47  83 S15G21    29.53S
AURORA         SUNNY     52  47  83 S13       29.51S
LANSING*       MOSUNNY   52  50  95 S12       29.56R
JOLIET*        SUNNY     53  49  88 S8        29.53S
WAUKEGAN       FOG       43  43 100 SE7       29.52R VSB 1/2
DUPAGE AIRPORT SUNNY     51  47  86 S12       29.51S
KANKAKEE*      SUNNY     53  48  84 S15G22    29.55S
WHEELING       MOSUNNY   52  48  86 S8        29.53R
MORRIS*        SUNNY     50  49  95 S10       29.51S
NORTHERLY ISL    N/A     41  40  96 SE3         N/A
$$

LMZ740>746-211700-
SOUTHERN LAKE MICHIGAN

STATION/POSITION SKY/WX   TEMP    WIND        PRES    VSBY  WAVE
                          AIR SEA DIR/SP/G                  HT/PER
                          (F)     (DEG/KT/KT) (MB)    (MI)  (FT/S)
HARRISON CRIB              46     170/ 18/ 19   N/A
BURNHAM HARBOR             42     150/  3/  5   N/A
CALUMET HARBOR             51     170/  8/ 14 1000.1R
BURNS HARBOR               52     160/ 11/ 21 1001.7S
MICHIGAN CITY              51     140/ 12/ 15   N/A
$$

ILZ025>027-034>036-040-047-049-050-058-095>099-211700-
WEST-CENTRAL ILLINOIS

CITY           SKY/WX    TMP DP  RH WIND       PRES   REMARKS
QUINCY         SUNNY     51  43  74 SW12G21   29.51R
GALESBURG*     SUNNY     49  45  85 S14       29.47S
MACOMB*        SUNNY     51  46  82 SW15G22   29.51R
JACKSONVILLE*  SUNNY     55  45  69 SW15      29.52S
PITTSFIELD*    SUNNY     55  44  64 SW17      29.53R
$$

ILZ028>032-037-038-041>044-048-051>054-059>061-211700-
CENTRAL ILLINOIS

CITY           SKY/WX    TMP DP  RH WIND       PRES   REMARKS
BLOOMINGTON    SUNNY     55  49  80 S17       29.54R
DECATUR        SUNNY     54  50  86 S15       29.56R
PEORIA         SUNNY     53  48  83 S15       29.50R
LACON*         SUNNY     54  47  78 SW10      29.49R
LINCOLN*       SUNNY     56  51  84 S9        29.54R
SPRINGFIELD    SUNNY     57  48  72 S18G24    29.54R
TAYLORVILLE    SUNNY     54  49  85 S13       29.56R
$$

ILZ033-039-045-046-055>057-062-063-211700-
EAST-CENTRAL ILLINOIS

CITY           SKY/WX    TMP DP  RH WIND       PRES   REMARKS
CHAMPAIGN      MOSUNNY   53  49  86 S16       29.57R
MATTOON        CLOUDY    54  50  86 S12       29.58R
PARIS*         CLOUDY    54  52  94 S14G20    29.60S
$$

ILZ079-100>102-211700-
SOUTHWEST ILLINOIS

CITY           SKY/WX    TMP DP  RH WIND       PRES   REMARKS
ALTON          SUNNY     55  48  76 SW13      29.58R
BELLEVILLE     MOSUNNY   58  53  86 SE7       29.58R
CAHOKIA*       SUNNY     58  47  66 SW8       29.58R
SPARTA*        MOSUNNY   57  50  79 S10       29.61R
$$

ILZ064>066-069>071-074>076-080>082-084>086-088>090-092>094-211700-
SOUTH-CENTRAL ILLINOIS

CITY           SKY/WX    TMP DP  RH WIND       PRES   REMARKS
CARBONDALE     MOSUNNY   58  55  90 S9        29.62R
CAIRO*         PTSUNNY   61  55  82 S10       29.65R
EFFINGHAM*     MOSUNNY   57  54  92 S6        29.61R
MARION         PTSUNNY   59  57  94 S12       29.64R
MT. VERNON     MOSUNNY   59  54  83 SW14      29.61R
CENTRALIA*     MOSUNNY   59  54  83 S14       29.59R
SALEM*         MOSUNNY   58  52  80 SW13      29.60R
METROPOLIS*    PTSUNNY   62  55  77 CALM      29.66S
$$

ILZ067-068-072-073-078-083-087-091-211700-
SOUTHEAST ILLINOIS

CITY           SKY/WX    TMP DP  RH WIND       PRES   REMARKS
LAWRENCEVILLE  PTSUNNY   56  53  90 S12       29.64R
FLORA*         CLOUDY    58  54  86 S9        29.61R
FAIRFIELD*     CLOUDY    57  54  89 S7        29.62R
HARRISBURG*    CLOUDY    60  54  82 S10       29.65R
ROBINSON*      PTSUNNY   54  51  92 S14       29.63R
CARMI*         CLOUDY    56  53  91 S12       29.64R
$$

ABBREVIATIONS USED IN REMARKS
   TC - TEMPERATURE IN CELSIUS
  WCI - WIND CHILL INDEX
   HX - HEAT INDEX
  VSB - VISIBILITY
$$





USA.gov is the U.S. government's official web portal to all federal, state and local government web resources and services.